Weather History for KC29 - June, 2013

Change the Weather History Date:

Friday, June 21, 2013

  Actual Average (KMSN) Record (KMSN)
Temperature  
Mean Temperature 72 °F 69 °F  
Max Temperature 79 °F 80 °F 100 °F (1988)
Min Temperature 66 °F 58 °F 36 °F (1992)
Degree Days  
Heating Degree Days 0 1  
Month to date heating degree days 54  
Since 1 June heating degree days 54  
Since 1 July heating degree days 7327  
Cooling Degree Days 8 5  
Month to date cooling degree days 68  
Year to date cooling degree days 98  
Since 1 June cooling degree days 68  
Growing Degree Days 22 (Base 50)    
Moisture  
Dew Point 63 °F    
Average Humidity 76    
Maximum Humidity 96    
Minimum Humidity 57    
Precipitation  
Precipitation 0.88 in 0.16 in 3.46 in (1954)
Month to date precipitation 3.19  
Year to date precipitation 15.02  
Snow  
Snow 0.00 in 0.00 in 0.00 in ()
Month to date snowfall 0.0  
Since 1 June snowfall 0.0  
Since 1 July snowfall 50.9  
Snow Depth -    
Sea Level Pressure  
Sea Level Pressure 30.02 in    
Wind  
Wind Speed 7 mph (South)    
Max Wind Speed 26 mph    
Max Gust Speed 31 mph    
Visibility 9 miles    
Events      
T = Trace of Precipitation, MM = Missing Value Source: NWS Daily Summary

Daily Weather History Graph

Daily Weather History Graph

Search for Another Location

Airport or City:

Trip Planner

Search our weather history database for the weather conditions in past years. The results will help you decide how hot, cold, wet, or windy it might be!

Date:

Astronomy

Jun. 21, 2013 Rise Set
Actual Time 5:18 AM CDT 8:41 PM CDT
Civil Twilight 4:43 AM CDT 9:16 PM CDT
Nautical Twilight 3:56 AM CDT 10:03 PM CDT
Astronomical Twilight 2:59 AM CDT 11:00 PM CDT
Moon 6:50 PM CDT (6/21) 3:36 AM CDT (6/21)
Length of Visible Light 16h 33m
Length of Day
15h 22m
Waxing Gibbous, 95% of the Moon is Illuminated
Jun 21
Waxing Gibbous
Jun 23
Full
Jun 29
Last Quarter
Jul 8
New
Jul 15
First Quarter

Hourly Weather History & Observations

Time (CDT) Temp. Dew Point Humidity Pressure Visibility Wind Dir Wind Speed Gust Speed Precip Events Conditions
12:15 AM 73.6 °F 59.0 °F 60% 30.08 in 10.0 mi SSE 8.1 mph - N/A   Clear
12:35 AM 72.7 °F 58.8 °F 62% 30.08 in 10.0 mi SE 4.6 mph - N/A   Clear
12:55 AM 72.1 °F 59.0 °F 63% 30.08 in 10.0 mi SE 5.8 mph - N/A   Scattered Clouds
1:15 AM 71.8 °F 58.6 °F 63% 30.07 in 10.0 mi SSE 6.9 mph - N/A   Mostly Cloudy
1:35 AM 71.8 °F 58.6 °F 63% 30.07 in 10.0 mi SSE 5.8 mph - N/A   Mostly Cloudy
1:55 AM 71.4 °F 58.6 °F 64% 30.06 in 10.0 mi SE 5.8 mph - N/A   Scattered Clouds
2:15 AM 70.5 °F 59.0 °F 67% 30.05 in 10.0 mi SE 5.8 mph - N/A   Clear
2:35 AM 69.8 °F 59.2 °F 69% 30.05 in 10.0 mi ESE 4.6 mph - N/A   Clear
2:55 AM 68.0 °F 59.7 °F 75% 30.05 in 10.0 mi ESE 5.8 mph - N/A   Clear
3:15 AM 67.6 °F 59.9 °F 76% 30.04 in 10.0 mi ESE 5.8 mph - N/A   Clear
3:35 AM 68.5 °F 59.9 °F 74% 30.04 in 10.0 mi SE 3.5 mph - N/A   Clear
3:55 AM 70.0 °F 60.1 °F 71% 30.03 in 10.0 mi SE 5.8 mph - N/A   Mostly Cloudy
4:15 AM 71.2 °F 60.3 °F 68% 30.04 in 10.0 mi Calm Calm - N/A   Overcast
4:35 AM 68.9 °F 63.0 °F 81% 30.05 in 4.0 mi Calm Calm - 0.06 in   Overcast
4:55 AM 69.1 °F 63.9 °F 83% 30.05 in 10.0 mi ESE 6.9 mph - 0.06 in   Mostly Cloudy
5:15 AM 68.9 °F 65.1 °F 88% 30.05 in 10.0 mi ESE 6.9 mph - N/A   Mostly Cloudy
5:35 AM 68.9 °F 65.3 °F 88% 30.02 in 10.0 mi SE 8.1 mph - N/A   Mostly Cloudy
5:55 AM 69.8 °F 64.0 °F 82% 30.01 in 10.0 mi SSE 6.9 mph - N/A   Scattered Clouds
6:15 AM 71.6 °F 62.4 °F 73% 30.00 in 10.0 mi SSE 9.2 mph - N/A   Mostly Cloudy
6:35 AM 73.2 °F 61.2 °F 66% 30.01 in 10.0 mi South 11.5 mph 17.3 mph N/A   Mostly Cloudy
6:55 AM 73.4 °F 61.2 °F 65% 30.00 in 10.0 mi South 11.5 mph 16.1 mph N/A   Mostly Cloudy
7:15 AM 72.7 °F 61.9 °F 69% 29.99 in 10.0 mi South 11.5 mph - N/A   Mostly Cloudy
7:35 AM 73.4 °F 61.9 °F 67% 30.00 in 10.0 mi South 10.4 mph - N/A   Mostly Cloudy
7:55 AM 73.4 °F 61.9 °F 67% 30.00 in 10.0 mi South 6.9 mph - N/A   Overcast
8:15 AM 73.4 °F 62.1 °F 68% 29.99 in 10.0 mi South 10.4 mph - N/A   Mostly Cloudy
8:35 AM 73.2 °F 63.0 °F 70% 30.01 in 10.0 mi South 11.5 mph - N/A   Mostly Cloudy
8:55 AM 72.7 °F 64.4 °F 75% 30.03 in 10.0 mi SW 5.8 mph - N/A   Overcast
9:15 AM 67.5 °F 64.6 °F 90% 30.10 in 1.2 mi NNW 17.3 mph 26.5 mph 0.20 in   Overcast
9:35 AM 66.6 °F 64.8 °F 94% 30.09 in 7.0 mi North 6.9 mph - 0.32 in   Overcast
9:55 AM 66.6 °F 64.9 °F 95% 30.10 in 10.0 mi North 4.6 mph - 0.33 in   Overcast
10:15 AM 66.7 °F 65.3 °F 95% 30.12 in 7.0 mi SSE 4.6 mph - 0.03 in   Overcast
10:35 AM 66.6 °F 65.3 °F 96% 30.09 in 7.0 mi ESE 4.6 mph - 0.06 in   Overcast
10:55 AM 66.7 °F 65.3 °F 95% 30.10 in 7.0 mi Calm Calm - 0.09 in   Overcast
11:15 AM 67.3 °F 65.8 °F 95% 30.11 in 10.0 mi SW 4.6 mph - 0.01 in   Overcast
11:35 AM 67.1 °F 65.7 °F 95% 30.07 in 4.0 mi Calm Calm - 0.07 in   Overcast
11:55 AM 67.6 °F 66.4 °F 96% 30.06 in 7.0 mi South 8.1 mph - 0.09 in   Overcast
12:15 PM 67.5 °F 65.7 °F 94% 30.02 in 10.0 mi South 23.0 mph - 0.01 in   Overcast
12:35 PM 68.0 °F 65.3 °F 91% 29.96 in 10.0 mi South 26.5 mph 31.1 mph 0.03 in   Overcast
12:55 PM 68.4 °F 64.9 °F 89% 29.92 in 10.0 mi South 21.9 mph 28.8 mph 0.03 in   Mostly Cloudy
1:15 PM 68.9 °F 64.6 °F 86% 29.84 in 10.0 mi South 24.2 mph 31.1 mph N/A   Clear
1:35 PM 70.9 °F 64.0 °F 79% 29.90 in 10.0 mi South 18.4 mph 28.8 mph N/A   Clear
1:55 PM 72.1 °F 63.5 °F 74% 29.95 in 10.0 mi West 13.8 mph 23.0 mph N/A   Clear
2:15 PM 74.1 °F 63.7 °F 70% 29.96 in 10.0 mi WNW 6.9 mph - N/A   Clear
2:35 PM 75.2 °F 62.8 °F 65% 29.96 in 10.0 mi WNW 3.5 mph - N/A   Clear
2:55 PM 76.1 °F 62.6 °F 63% 29.97 in 10.0 mi NW 3.5 mph - N/A   Clear
3:15 PM 76.6 °F 61.7 °F 60% 29.96 in 10.0 mi WNW 5.8 mph - N/A   Clear
3:35 PM 77.4 °F 62.1 °F 59% 29.97 in 10.0 mi NNW 5.8 mph - N/A   Clear
3:55 PM 77.4 °F 62.8 °F 61% 29.97 in 10.0 mi NW 5.8 mph - N/A   Clear
4:15 PM 78.4 °F 63.0 °F 59% 29.97 in 10.0 mi NW 3.5 mph - N/A   Clear
4:35 PM 79.2 °F 62.6 °F 57% 29.97 in 10.0 mi NW 3.5 mph - N/A   Clear
4:55 PM 78.1 °F 63.1 °F 60% 29.99 in 10.0 mi SSW 4.6 mph - N/A   Mostly Cloudy
5:15 PM 78.4 °F 64.0 °F 61% 30.00 in 10.0 mi WSW 3.5 mph - N/A   Overcast
5:35 PM 78.8 °F 64.2 °F 61% 30.00 in 10.0 mi SW 5.8 mph - N/A   Overcast
5:55 PM 79.0 °F 63.9 °F 60% 30.00 in 10.0 mi SSW 6.9 mph - N/A   Mostly Cloudy
6:15 PM 77.5 °F 62.8 °F 60% 30.00 in 10.0 mi South 9.2 mph - N/A   Scattered Clouds
6:35 PM 76.8 °F 63.3 °F 63% 30.00 in 10.0 mi South 5.8 mph - N/A   Mostly Cloudy
6:55 PM 76.1 °F 63.5 °F 65% 30.00 in 10.0 mi South 6.9 mph - N/A   Overcast
7:15 PM 75.2 °F 63.7 °F 67% 30.00 in 10.0 mi South 3.5 mph - N/A   Scattered Clouds
7:35 PM 75.0 °F 63.7 °F 68% 30.01 in 10.0 mi SW 3.5 mph - N/A   Mostly Cloudy
7:55 PM 74.3 °F 64.6 °F 72% 30.02 in 10.0 mi WSW 3.5 mph - N/A   Overcast
8:15 PM 74.3 °F 64.0 °F 70% 30.03 in 10.0 mi Calm Calm - N/A   Overcast
8:35 PM 73.2 °F 65.5 °F 77% 30.03 in 10.0 mi Calm Calm - N/A   Overcast
8:55 PM 72.7 °F 66.4 °F 81% 30.04 in 10.0 mi Calm Calm - N/A   Overcast
9:15 PM 73.8 °F 63.9 °F 71% 30.05 in 10.0 mi SSW 3.5 mph - N/A   Overcast
9:35 PM 73.6 °F 63.7 °F 71% 30.05 in 7.0 mi West 4.6 mph - 0.02 in   Overcast
9:55 PM 70.9 °F 68.0 °F 91% 30.05 in 10.0 mi Calm Calm - 0.07 in   Overcast
10:15 PM 69.8 °F 68.0 °F 94% 30.04 in 10.0 mi ENE 3.5 mph - N/A   Overcast
10:35 PM 70.2 °F 68.5 °F 95% 30.03 in 10.0 mi Calm Calm - N/A   Mostly Cloudy
10:55 PM 69.3 °F 68.0 °F 96% 30.04 in 10.0 mi Calm Calm - N/A   Mostly Cloudy
11:15 PM 70.0 °F 68.5 °F 95% 30.04 in 10.0 mi Calm Calm - N/A   Overcast
11:35 PM 70.2 °F 68.9 °F 96% 30.01 in 4.0 mi ENE 5.8 mph - 0.21 in   Overcast
11:55 PM 70.0 °F 68.7 °F 96% 30.00 in 10.0 mi SE 5.8 mph - 0.21 in   Mostly Cloudy